DW1902 Weather Reports


Display with metric or nautical units.
time (UTC)temp
F
wind
direction
speed
MPH
gust
MPH
rain 1hr
in
rain 24hr
in
rain mn
in
humidity
%
barometer
mb
20180221192206 52 247 10.0 19.0 0.00 0.05 0.03 98 1017.6
20180221191705 52 250 11.0 20.0 0.00 0.05 0.03 98 1017.7
20180221191206 52 295 10.0 20.0 0.00 0.05 0.03 98 1017.7
20180221190705 52 227 9.0 20.0 0.00 0.05 0.03 98 1017.8
20180221190207 53 238 9.0 21.0 0.00 0.05 0.03 98 1017.7
20180221185705 53 253 10.0 21.0 0.00 0.05 0.03 98 1017.7
20180221185205 53 221 10.0 21.0 0.00 0.05 0.03 98 1017.9
20180221184705 53 238 9.0 19.0 0.00 0.05 0.03 98 1018.0
20180221184206 54 232 10.0 21.0 0.00 0.05 0.03 98 1018.0
20180221183705 54 254 12.0 21.0 0.00 0.05 0.03 97 1018.1
20180221183207 54 228 12.0 19.0 0.00 0.05 0.03 97 1018.2
20180221182705 55 230 10.0 18.0 0.00 0.05 0.03 96 1018.1
20180221182205 56 267 8.0 17.0 0.00 0.05 0.03 96 1018.1
20180221181706 57 236 8.0 18.0 0.00 0.05 0.03 96 1018.2
20180221181205 57 256 8.0 18.0 0.00 0.05 0.03 95 1018.1
20180221180705 57 243 7.0 22.0 0.00 0.05 0.03 95 1018.3
20180221180206 57 238 9.0 22.0 0.00 0.05 0.03 95 1018.4
20180221175705 57 268 9.0 22.0 0.00 0.05 0.03 95 1018.5
20180221175206 58 228 8.0 14.0 0.00 0.05 0.03 95 1018.7
20180221174705 58 217 8.0 14.0 0.00 0.05 0.03 96 1018.8
20180221174205 58 242 7.0 14.0 0.00 0.05 0.03 96 1018.9
20180221173705 58 281 6.0 15.0 0.00 0.05 0.03 97 1019.0
20180221173205 58 221 6.0 15.0 0.00 0.05 0.03 99 1019.1
20180221172706 58 232 6.0 15.0 0.00 0.05 0.03 100 1019.0
20180221172205 57 240 5.0 10.0 0.00 0.05 0.03 100 1019.0
20180221171706 56 262 4.0 13.0 0.00 0.05 0.03 100 1019.2
20180221171205 56 205 5.0 13.0 0.00 0.05 0.03 100 1019.2
20180221170704 55 214 6.0 13.0 0.00 0.05 0.03 100 1019.3
20180221170206 54 261 5.0 11.0 0.00 0.05 0.03 100 1019.4
20180221165705 53 171 3.0 8.0 0.00 0.05 0.03 100 1019.5
20180221165206 51 219 2.0 6.0 0.00 0.05 0.03 100 1019.8
20180221164705 49 192 1.0 6.0 0.00 0.05 0.03 100 1019.8
20180221164206 47 109 0.0 3.0 0.00 0.05 0.03 100 1020.1
20180221163706 46 96 1.0 3.0 0.00 0.05 0.03 100 1020.1
20180221163206 45 96 1.0 3.0 0.00 0.05 0.03 100 1020.3
20180221162705 45 96 0.0 3.0 0.00 0.05 0.03 100 1020.4
20180221162207 45 96 0.0 3.0 0.00 0.05 0.03 100 1020.5
20180221161706 45 96 0.0 3.0 0.00 0.05 0.03 100 1020.7
20180221161209 45 96 0.0 3.0 0.00 0.05 0.03 100 1020.8
20180221160705 45 96 0.0 3.0 0.00 0.05 0.03 100 1020.9
20180221160206 45 96 0.0 3.0 0.00 0.05 0.03 100 1021.0
20180221155705 44 96 0.0 2.0 0.00 0.06 0.03 100 1021.1
20180221155205 44 96 0.0 2.0 0.00 0.06 0.03 100 1021.2
20180221154706 44 96 0.0 2.0 0.00 0.06 0.03 100 1021.3
20180221154206 43 96 0.0 2.0 0.01 0.06 0.03 100 1021.4
20180221153705 43 96 0.0 2.0 0.01 0.06 0.03 100 1021.5
20180221153205 43 96 0.0 3.0 0.01 0.06 0.03 100 1021.6
20180221152705 43 96 0.0 3.0 0.01 0.06 0.03 100 1021.7
20180221152204 43 96 0.0 4.0 0.01 0.06 0.03 100 1021.9
20180221151705 43 96 0.0 4.0 0.01 0.06 0.03 100 1021.9
20180221151206 42 96 0.0 4.0 0.01 0.06 0.03 100 1022.0
20180221150705 42 96 0.0 4.0 0.01 0.06 0.03 100 1022.0
20180221150205 42 96 0.0 4.0 0.01 0.06 0.03 100 1022.1
20180221145705 42 92 0.0 2.0 0.01 0.06 0.03 100 1022.4
20180221145205 42 92 0.0 1.0 0.01 0.06 0.03 100 1022.4
20180221144705 42 92 0.0 3.0 0.00 0.06 0.02 100 1022.4
20180221144236 42 92 0.0 3.0 0.00 0.06 0.02 100 1022.4
20180221143706 42 92 0.0 3.0 0.00 0.06 0.02 100 1022.5
20180221143205 41 91 0.0 2.0 0.00 0.06 0.02 100 1022.6
20180221142705 41 91 0.0 1.0 0.00 0.06 0.02 100 1022.7
20180221142206 41 89 0.0 1.0 0.00 0.06 0.02 100 1022.6
20180221141705 40 89 0.0 1.0 0.00 0.06 0.02 100 1022.7
20180221141206 40 89 0.0 1.0 0.00 0.06 0.02 100 1022.7
20180221140705 40 89 0.0 1.0 0.00 0.06 0.02 100 1022.8
20180221140206 40 89 0.0 0.0 0.00 0.06 0.02 100 1022.9
20180221135705 40 89 0.0 1.0 0.00 0.06 0.02 100 1022.9
20180221135205 40 89 0.0 1.0 0.00 0.06 0.02 100 1022.9
20180221134705 39 89 0.0 1.0 0.00 0.06 0.02 100 1023.1
20180221134205 39 89 0.0 1.0 0.00 0.06 0.02 100 1023.3
20180221133705 38 89 0.0 1.0 0.00 0.06 0.02 100 1023.4
20180221133205 38 89 0.0 0.0 0.00 0.06 0.02 100 1023.4
20180221132705 38 89 0.0 0.0 0.00 0.06 0.02 100 1023.4
20180221132205 38 89 0.0 0.0 0.00 0.06 0.02 100 1023.5
20180221131705 38 89 0.0 0.0 0.00 0.06 0.02 100 1023.6
20180221131205 38 89 0.0 0.0 0.00 0.06 0.02 100 1023.6
20180221130705 38 89 0.0 0.0 0.00 0.06 0.02 100 1023.6
20180221130206 38 89 0.0 0.0 0.00 0.06 0.02 100 1023.7
20180221125704 38 89 0.0 0.0 0.00 0.06 0.02 100 1023.7
20180221125205 38 89 0.0 0.0 0.00 0.06 0.02 100 1023.8
20180221124705 37 89 0.0 0.0 0.00 0.06 0.02 100 1024.1
20180221124205 37 89 0.0 0.0 0.00 0.06 0.02 100 1024.0
20180221123707 37 89 0.0 0.0 0.00 0.06 0.02 100 1024.0
20180221123206 37 89 0.0 1.0 0.00 0.06 0.02 100 1024.1
20180221122705 37 89 0.0 1.0 0.00 0.06 0.02 100 1024.0
20180221122205 37 89 0.0 0.0 0.00 0.06 0.02 100 1023.9
20180221121705 37 89 0.0 0.0 0.00 0.06 0.02 100 1024.1
20180221121205 37 89 0.0 0.0 0.00 0.06 0.02 100 1024.1
20180221120705 37 89 0.0 0.0 0.00 0.06 0.02 100 1023.8
20180221120205 37 89 0.0 1.0 0.00 0.06 0.02 100 1024.1
20180221115705 37 89 0.0 1.0 0.00 0.06 0.02 100 1024.0
20180221115206 37 89 0.0 1.0 0.00 0.06 0.02 100 1024.1
20180221114706 36 89 0.0 1.0 0.00 0.06 0.02 100 1023.9
20180221114206 36 89 0.0 1.0 0.00 0.06 0.02 100 1023.9
20180221113706 36 89 0.0 1.0 0.00 0.06 0.02 100 1023.9
20180221113205 36 89 0.0 1.0 0.00 0.06 0.02 100 1024.0
20180221112705 36 89 0.0 1.0 0.00 0.06 0.02 100 1023.9
20180221112206 36 89 0.0 1.0 0.00 0.06 0.02 100 1024.0
20180221111706 36 89 0.0 1.0 0.00 0.06 0.02 100 1024.0
20180221111205 36 89 0.0 1.0 0.00 0.06 0.02 100 1023.9
20180221110705 36 89 0.0 1.0 0.00 0.06 0.02 100 1024.2
20180221110206 36 89 0.0 1.0 0.00 0.06 0.02 100 1024.3
20180221105705 36 89 0.0 1.0 0.00 0.06 0.02 100 1024.6
20180221105205 36 89 0.0 0.0 0.00 0.06 0.02 100 1024.3
20180221104706 36 89 0.0 0.0 0.00 0.06 0.02 100 1024.3
20180221104205 36 89 0.0 2.0 0.00 0.06 0.02 100 1024.5
20180221103705 36 89 0.0 2.0 0.00 0.07 0.02 100 1024.5
20180221103205 36 89 0.0 2.0 0.00 0.07 0.02 100 1024.6
20180221102705 36 89 0.0 2.0 0.00 0.07 0.02 100 1024.8
20180221102212 36 89 0.0 1.0 0.00 0.07 0.02 100 1024.6
20180221101705 36 89 0.0 1.0 0.00 0.07 0.02 100 1024.7
20180221101206 36 89 0.0 1.0 0.00 0.07 0.02 100 1024.5
20180221100705 36 89 0.0 1.0 0.00 0.07 0.02 100 1024.7
20180221100207 36 89 0.0 3.0 0.00 0.07 0.02 100 1024.8
20180221095705 36 89 0.0 3.0 0.00 0.07 0.02 100 1024.9
20180221095205 36 89 0.0 5.0 0.00 0.07 0.02 100 1025.1
20180221094706 36 89 1.0 5.0 0.00 0.07 0.02 100 1025.1
20180221094205 36 86 0.0 3.0 0.00 0.07 0.02 100 1025.2
20180221093705 36 109 0.0 3.0 0.00 0.07 0.02 100 1025.3
20180221092706 36 109 0.0 4.0 0.00 0.07 0.02 100 1025.0
20180221092209 36 117 0.0 5.0 0.00 0.07 0.02 100 1025.1
20180221091210 36 132 0.0 2.0 0.00 0.07 0.02 100 1025.4
20180221090707 36 92 0.0 2.0 0.00 0.07 0.02 100 1025.4
20180221090207 36 92 0.0 4.0 0.00 0.07 0.02 100 1025.5
20180221085705 36 91 0.0 4.0 0.00 0.07 0.02 100 1025.5
20180221085206 36 92 1.0 5.0 0.00 0.07 0.02 100 1025.6
20180221084706 36 86 1.0 5.0 0.00 0.08 0.02 100 1025.7
20180221084210 36 81 1.0 5.0 0.00 0.08 0.02 100 1025.8
20180221083707 36 78 0.0 5.0 0.00 0.08 0.02 100 1025.9
20180221083212 36 71 0.0 3.0 0.00 0.08 0.02 100 1025.9
20180221082704 36 71 0.0 3.0 0.00 0.08 0.02 100 1025.7
20180221082207 36 70 0.0 3.0 0.00 0.08 0.02 100 1025.9
20180221081206 36 69 0.0 3.0 0.00 0.08 0.02 100 1026.2
20180221080706 36 68 0.0 3.0 0.00 0.08 0.02 100 1026.2
20180221080205 36 68 0.0 3.0 0.00 0.09 0.02 100 1026.2
20180221075705 36 68 0.0 5.0 0.00 0.09 0.02 100 1026.3
20180221075205 36 67 1.0 5.0 0.00 0.09 0.02 100 1026.1
20180221074706 36 67 1.0 4.0 0.00 0.09 0.02 100 1026.0
20180221074206 36 97 1.0 4.0 0.00 0.09 0.02 100 1026.1
20180221073705 36 78 1.0 4.0 0.00 0.09 0.02 100 1026.4
20180221073206 36 76 1.0 7.0 0.00 0.09 0.02 100 1026.3
20180221072706 36 82 1.0 7.0 0.00 0.09 0.02 100 1026.4
20180221072206 36 82 2.0 8.0 0.00 0.10 0.02 100 1026.4
20180221071705 36 98 1.0 8.0 0.00 0.10 0.02 100 1026.7
20180221071205 36 51 1.0 8.0 0.01 0.10 0.02 100 1026.4
20180221070705 36 36 1.0 6.0 0.01 0.10 0.02 100 1026.5
20180221070208 36 78 1.0 6.0 0.01 0.10 0.02 100 1026.6
20180221065705 36 76 1.0 6.0 0.01 0.10 0.02 100 1026.8
20180221065205 36 76 1.0 5.0 0.01 0.10 0.02 100 1026.9
20180221064705 36 102 0.0 5.0 0.01 0.11 0.02 100 1027.2
20180221064206 36 102 0.0 5.0 0.01 0.11 0.02 100 1027.0
20180221063705 36 84 0.0 4.0 0.01 0.11 0.02 100 1027.1
20180221063205 36 88 0.0 9.0 0.01 0.11 0.02 100 1027.1
20180221062705 36 88 1.0 9.0 0.01 0.11 0.02 100 1027.1
20180221062205 36 85 1.0 9.0 0.01 0.11 0.02 100 1027.1
20180221061705 36 84 1.0 7.0 0.01 0.11 0.02 100 1027.0
20180221061205 36 91 0.0 3.0 0.00 0.11 0.02 100 1027.2
20180221060705 36 96 0.0 4.0 0.01 0.11 0.02 100 1027.1
20180221060207 36 95 0.0 5.0 0.01 0.11 0.02 100 1027.0
20180221055705 36 96 0.0 5.0 0.01 0.11 0.02 100 1026.9
20180221055205 36 88 1.0 5.0 0.01 0.11 0.02 100 1027.0
20180221054705 36 88 1.0 4.0 0.01 0.12 0.02 100 1027.2
20180221054205 36 67 1.0 4.0 0.01 0.12 0.02 100 1027.0
20180221053708 36 67 1.0 6.0 0.01 0.12 0.02 100 1027.2
20180221053206 36 74 1.0 6.0 0.01 0.12 0.02 100 1027.3
20180221052705 36 96 1.0 6.0 0.01 0.12 0.02 100 1027.5
20180221052205 37 88 1.0 9.0 0.01 0.12 0.02 100 1027.5
20180221051705 37 72 1.0 9.0 0.01 0.12 0.02 100 1027.5
20180221051206 37 61 1.0 9.0 0.01 0.12 0.02 100 1027.7
20180221050705 37 39 1.0 6.0 0.00 0.11 0.01 100 1027.8
20180221050206 37 93 1.0 6.0 0.01 0.11 0.01 100 1027.8
20180221045705 37 96 1.0 6.0 0.01 0.11 0.01 100 1027.8
20180221045206 37 78 1.0 7.0 0.01 0.12 0.01 100 1027.8
20180221044706 37 101 1.0 9.0 0.01 0.12 0.01 100 1027.7
20180221044205 37 87 2.0 12.0 0.01 0.12 0.01 100 1027.7
20180221043705 37 94 2.0 12.0 0.01 0.12 0.01 100 1027.5
20180221043206 37 121 2.0 12.0 0.01 0.12 0.01 100 1027.5
20180221042715 37 96 1.0 7.0 0.01 0.12 0.01 100 1027.7
20180221042215 37 103 1.0 6.0 0.01 0.12 0.01 100 1027.5
20180221041705 37 100 1.0 6.0 0.01 0.12 0.01 100 1027.5
20180221041206 37 68 2.0 9.0 0.01 0.12 0.01 100 1027.6
20180221040714 37 86 2.0 9.0 0.01 0.11 0.00 100 1027.5
20180221040205 37 113 3.0 9.0 0.00 0.11 0.11 100 1027.5
20180221035706 37 81 2.0 8.0 0.00 0.11 0.11 100 1027.5
20180221035205 37 90 1.0 8.0 0.00 0.11 0.11 100 1027.7
20180221034705 37 73 2.0 8.0 0.00 0.11 0.11 100 1027.5
20180221034205 37 98 3.0 8.0 0.00 0.11 0.11 100 1027.5
20180221033706 38 123 2.0 10.0 0.00 0.11 0.11 100 1027.3
20180221033205 38 76 3.0 12.0 0.00 0.11 0.11 100 1027.4
20180221032705 38 98 3.0 12.0 0.00 0.11 0.11 100 1027.4
20180221032205 38 90 3.0 12.0 0.00 0.11 0.11 100 1027.5
20180221031705 38 105 3.0 12.0 0.01 0.11 0.11 100 1027.4
20180221031205 38 57 3.0 12.0 0.01 0.11 0.11 100 1027.4
20180221030705 38 76 3.0 12.0 0.01 0.12 0.11 100 1027.5
20180221030205 38 61 3.0 11.0 0.01 0.12 0.11 100 1027.3
20180221025706 38 96 3.0 9.0 0.01 0.12 0.11 100 1027.4
20180221025205 38 80 3.0 10.0 0.01 0.12 0.11 100 1027.5
20180221024705 38 103 3.0 12.0 0.01 0.12 0.11 100 1027.5
20180221024206 38 76 3.0 13.0 0.02 0.12 0.11 100 1027.7
20180221023706 38 49 3.0 13.0 0.02 0.12 0.11 100 1027.8
20180221023205 38 65 4.0 13.0 0.02 0.12 0.11 100 1027.9
20180221022705 38 57 3.0 13.0 0.02 0.12 0.11 100 1027.9
20180221022205 38 94 4.0 13.0 0.02 0.12 0.11 100 1027.9
20180221021705 38 84 3.0 11.0 0.01 0.11 0.10 100 1028.1
20180221021205 38 76 3.0 11.0 0.01 0.11 0.10 100 1028.1
20180221020705 39 86 3.0 12.0 0.01 0.11 0.10 100 1028.0
20180221020206 39 61 4.0 13.0 0.01 0.11 0.10 100 1028.0
20180221015705 39 59 4.0 13.0 0.01 0.11 0.10 100 1028.2
20180221015205 39 94 5.0 13.0 0.01 0.11 0.10 100 1028.2
20180221014705 38 49 5.0 10.0 0.00 0.10 0.09 100 1028.2
20180221014205 38 64 4.0 10.0 0.00 0.10 0.09 100 1028.1
20180221013705 38 53 3.0 14.0 0.00 0.10 0.09 100 1028.0
20180221013205 39 88 3.0 14.0 0.00 0.10 0.09 100 1028.0
20180221012705 39 70 3.0 9.0 0.00 0.10 0.09 100 1028.1
20180221012205 39 38 3.0 9.0 0.00 0.11 0.09 100 1028.0
20180221011705 39 85 2.0 12.0 0.00 0.11 0.09 100 1028.0
20180221011205 39 88 2.0 12.0 0.00 0.11 0.09 100 1028.0
20180221010705 39 144 3.0 11.0 0.00 0.11 0.09 100 1027.8
20180221010205 39 78 3.0 11.0 0.00 0.11 0.09 100 1027.7
20180221005705 39 83 3.0 10.0 0.00 0.11 0.09 100 1027.9
20180221005205 39 62 3.0 11.0 0.00 0.11 0.09 100 1027.8
20180221004706 39 86 3.0 11.0 0.00 0.11 0.09 100 1027.6
20180221004205 39 90 3.0 9.0 0.00 0.11 0.09 100 1027.4
20180221003705 39 98 2.0 8.0 0.00 0.11 0.09 100 1027.5
20180221003206 40 96 2.0 11.0 0.00 0.11 0.09 100 1027.4
20180221002705 40 101 2.0 11.0 0.00 0.11 0.09 100 1027.4
20180221002205 40 82 2.0 11.0 0.00 0.11 0.09 100 1027.2
20180221001705 40 70 2.0 7.0 0.00 0.11 0.09 100 1027.3
20180221001206 40 67 1.0 7.0 0.00 0.11 0.09 100 1027.2
20180221000705 40 92 1.0 7.0 0.00 0.11 0.09 100 1027.2
20180221000206 40 95 2.0 8.0 0.00 0.11 0.09 100 1027.2
20180220235705 40 45 2.0 8.0 0.00 0.11 0.09 100 1027.3
20180220235205 40 66 2.0 8.0 0.00 0.11 0.09 100 1027.0
20180220234705 40 109 2.0 8.0 0.00 0.11 0.09 100 1026.9
20180220234205 40 82 2.0 8.0 0.00 0.11 0.09 100 1026.9
20180220233705 40 75 2.0 8.0 0.00 0.11 0.09 100 1026.8
20180220233205 40 88 2.0 8.0 0.00 0.11 0.09 100 1026.7
20180220232705 40 82 2.0 8.0 0.00 0.11 0.09 100 1026.6
20180220232205 40 80 2.0 7.0 0.00 0.11 0.09 100 1026.6
20180220231705 40 94 1.0 8.0 0.00 0.11 0.09 100 1026.5
20180220231205 41 82 1.0 8.0 0.00 0.11 0.09 100 1026.4
20180220230705 41 60 1.0 4.0 0.00 0.11 0.09 100 1026.4
20180220230206 41 91 0.0 5.0 0.00 0.11 0.09 100 1026.4
20180220225705 41 89 1.0 5.0 0.00 0.11 0.09 100 1026.3
20180220225205 41 93 1.0 5.0 0.00 0.11 0.09 100 1026.4
20180220224706 41 95 1.0 5.0 0.00 0.11 0.09 100 1026.4
20180220224205 41 83 0.0 3.0 0.00 0.11 0.09 100 1026.4
20180220223709 41 82 0.0 6.0 0.00 0.11 0.09 100 1026.5
20180220223220 41 75 1.0 6.0 0.00 0.11 0.09 100 1026.6
20180220222706 41 75 1.0 6.0 0.00 0.11 0.09 100 1026.5
20180220222206 41 93 1.0 4.0 0.00 0.11 0.09 100 1026.4
20180220221705 41 94 1.0 4.0 0.00 0.11 0.09 100 1026.3
20180220221205 42 74 0.0 4.0 0.00 0.11 0.09 100 1026.3
20180220220705 42 113 0.0 4.0 0.00 0.11 0.09 100 1026.1
20180220220205 42 103 1.0 4.0 0.00 0.11 0.09 100 1026.0
20180220215705 42 96 1.0 4.0 0.00 0.11 0.09 100 1026.2
20180220215206 42 100 0.0 3.0 0.00 0.11 0.09 100 1026.4
20180220214706 42 84 0.0 3.0 0.00 0.11 0.09 100 1026.2
20180220214212 42 84 0.0 4.0 0.00 0.11 0.09 100 1026.3
20180220213705 42 84 1.0 4.0 0.00 0.11 0.09 100 1026.1
20180220213205 42 82 1.0 4.0 0.00 0.11 0.09 100 1026.1
20180220212705 43 85 0.0 4.0 0.00 0.11 0.09 100 1026.0
20180220212211 43 85 0.0 4.0 0.00 0.11 0.09 100 1026.0
20180220211713 43 85 0.0 4.0 0.00 0.11 0.09 100 1026.1
20180220210706 43 87 1.0 6.0 0.00 0.11 0.09 100 1025.9
20180220210208 43 69 1.0 6.0 0.00 0.11 0.09 100 1025.8
20180220205705 43 86 1.0 4.0 0.00 0.11 0.09 100 1025.9
20180220205205 43 71 0.0 4.0 0.00 0.11 0.09 100 1025.8
20180220204705 44 71 0.0 3.0 0.00 0.11 0.09 100 1025.6
20180220204207 44 64 0.0 3.0 0.00 0.11 0.09 100 1025.8
20180220203711 44 64 0.0 4.0 0.00 0.11 0.09 100 1025.6
20180220203208 44 64 1.0 4.0 0.00 0.11 0.09 100 1025.8
20180220202705 44 61 1.0 8.0 0.00 0.11 0.09 100 1025.7
20180220202205 44 63 1.0 8.0 0.00 0.11 0.09 100 1025.7
20180220201705 44 63 1.0 6.0 0.00 0.11 0.09 100 1025.7
20180220201205 44 74 1.0 6.0 0.00 0.11 0.09 100 1025.5
20180220200706 45 102 0.0 3.0 0.00 0.12 0.09 100 1025.4
20180220200206 45 103 0.0 4.0 0.00 0.12 0.09 100 1025.3
20180220195705 45 103 0.0 4.0 0.00 0.12 0.09 100 1025.1
20180220195205 45 103 0.0 4.0 0.00 0.12 0.09 100 1025.2
20180220194706 45 104 0.0 3.0 0.00 0.12 0.09 100 1025.2
20180220194207 45 77 0.0 3.0 0.00 0.12 0.09 100 1025.2
20180220193705 45 77 0.0 3.0 0.00 0.12 0.09 100 1025.2
20180220193207 45 77 0.0 3.0 0.00 0.13 0.09 100 1025.3
20180220192705 45 77 0.0 5.0 0.00 0.13 0.09 100 1025.3